Overview Statistics Trail Chart Weather Telemetry Raw packets
 

This is the latest recevied weather packets stored in our database for station/object KA1JKB. If no packets are shown the sender has not sent any weather packets the latest 10 day(s).

<< 25 26 27 28 29 30 31 >>
Time Temp. Humidity Pressure Rain* Wind** Luminosity Snow
1788269314 23.89° C 96% 1013.1 hPa 0 mm - 164 W/m² -
1788269009 23.89° C 98% 1013.3 hPa 0 mm - 181 W/m² -
1788268704 23.33° C 99% 1013 hPa 0 mm - 181 W/m² -
1788268403 22.78° C 99% 1013.1 hPa 0 mm - 212 W/m² -
1788268099 22.78° C 99% 1013 hPa 0 mm - 169 W/m² -
1788267799 22.22° C 99% 1013 hPa 0 mm - 167 W/m² -
1788267497 22.22° C 99% 1013.1 hPa 0 mm - 117 W/m² -
1788267197 22.22° C 99% 1013.1 hPa 0 mm - 129 W/m² -
1788266892 21.67° C 99% 1013.3 hPa 0 mm - 124 W/m² -
1788266587 21.67° C 99% 1013.3 hPa 0 mm - 111 W/m² -
1788266286 21.67° C 99% 1013.3 hPa 0 mm - 98 W/m² -
1788265981 21.67° C 99% 1013.2 hPa 0 mm - 63 W/m² -
1788265680 21.67° C 99% 1013 hPa 0 mm - 58 W/m² -
1788265375 21.11° C 99% 1013.2 hPa 0 mm - 69 W/m² -
1788265074 21.11° C 99% 1013.1 hPa 0 mm - 57 W/m² -
1788264769 21.11° C 99% 1013.1 hPa 0 mm - 54 W/m² -
1788264469 21.11° C 99% 1013 hPa 0 mm - 52 W/m² -
1788264164 21.11° C 99% 1013.5 hPa 0 mm - 44 W/m² -
1788263859 21.11° C 99% 1013.2 hPa 0 mm - 33 W/m² -
1788263555 20.56° C 99% 1013.2 hPa 0 mm - 44 W/m² -
1788263246 20.56° C 99% 1013.1 hPa 0 mm - 36 W/m² -
1788262946 20.56° C 99% 1013 hPa 0 mm - 27 W/m² -
1788262640 20.56° C 99% 1012.8 hPa 0 mm - 21 W/m² -
1788262335 20° C 99% 1012.9 hPa 0 mm - 19 W/m² -
1788262034 20° C 99% 1012.8 hPa 0 mm - 16 W/m² -

* Rain latest hour (hover to see other rain measurements)
** Current wind speed in m/s (hover to see current wind gust speed)